Time,TemperatureF,DewpointF,PressureIn,WindDirection,WindDirectionDegrees,WindSpeedMPH,WindSpeedGustMPH,Humidity,HourlyPrecipIn,Conditions,Clouds,dailyrainin,SoftwareType,DateUTC
2013-04-30 00:02:00,58.0,51.0,29.89,ENE,65,0.0,4.0,78,0.00,,,0.00,,2013-04-30 04:02:00,
2013-04-30 00:12:00,58.0,51.0,29.89,ENE,65,0.0,4.0,78,0.00,,,0.00,,2013-04-30 04:12:00,
2013-04-30 00:22:00,57.0,51.0,29.89,SSW,204,0.0,3.0,79,0.00,,,0.00,,2013-04-30 04:22:00,
2013-04-30 00:32:00,57.0,51.0,29.89,ESE,122,0.0,2.0,79,0.00,,,0.00,,2013-04-30 04:32:00,
2013-04-30 00:42:00,57.0,51.0,29.89,ESE,122,0.0,2.0,79,0.00,,,0.00,,2013-04-30 04:42:00,
2013-04-30 00:52:00,57.0,51.0,29.89,ENE,77,1.0,5.0,80,0.00,,,0.00,,2013-04-30 04:52:00,
2013-04-30 01:02:00,56.0,50.0,29.90,East,98,0.0,2.0,81,0.00,,,0.00,,2013-04-30 05:02:00,
2013-04-30 01:12:00,56.0,50.0,29.90,East,98,0.0,2.0,81,0.00,,,0.00,,2013-04-30 05:12:00,
2013-04-30 01:22:00,56.0,50.0,29.91,WSW,251,0.0,1.0,81,0.00,,,0.00,,2013-04-30 05:22:00,
2013-04-30 01:31:00,55.0,50.0,29.91,WSW,248,0.0,1.0,83,0.00,,,0.00,,2013-04-30 05:31:00,
2013-04-30 01:42:00,55.0,50.0,29.91,WSW,248,0.0,1.0,83,0.00,,,0.00,,2013-04-30 05:42:00,
2013-04-30 01:51:00,55.0,50.0,29.92,SSE,165,0.0,1.0,84,0.00,,,0.00,,2013-04-30 05:51:00,
2013-04-30 02:02:00,55.0,50.0,29.92,SE,131,0.0,2.0,84,0.00,,,0.00,,2013-04-30 06:02:00,
2013-04-30 02:12:00,55.0,50.0,29.92,SE,131,0.0,2.0,84,0.00,,,0.00,,2013-04-30 06:12:00,
2013-04-30 02:21:00,55.0,50.0,29.92,SE,139,0.0,2.0,84,0.00,,,0.00,,2013-04-30 06:21:00,
2013-04-30 02:32:00,55.0,50.0,29.92,SSE,158,0.0,2.0,84,0.00,,,0.00,,2013-04-30 06:32:00,
2013-04-30 02:41:00,55.0,50.0,29.92,SSE,158,0.0,2.0,84,0.00,,,0.00,,2013-04-30 06:41:00,
2013-04-30 02:52:00,55.0,50.0,29.92,SSW,193,0.0,2.0,84,0.00,,,0.00,,2013-04-30 06:52:00,
2013-04-30 03:01:00,55.0,50.0,29.92,East,86,0.0,3.0,84,0.00,,,0.00,,2013-04-30 07:01:00,
2013-04-30 03:11:00,55.0,50.0,29.92,East,86,0.0,3.0,84,0.00,,,0.00,,2013-04-30 07:11:00,
2013-04-30 03:21:00,55.0,50.0,29.91,SE,143,0.0,4.0,84,0.00,,,0.00,,2013-04-30 07:21:00,
2013-04-30 03:31:00,55.0,51.0,29.91,SE,126,0.0,3.0,85,0.00,,,0.00,,2013-04-30 07:31:00,
2013-04-30 03:42:00,55.0,51.0,29.91,SE,126,0.0,3.0,85,0.00,,,0.00,,2013-04-30 07:42:00,
2013-04-30 03:52:00,54.0,50.0,29.91,East,84,0.0,3.0,85,0.00,,,0.00,,2013-04-30 07:52:00,
2013-04-30 04:02:00,54.0,50.0,29.91,ESE,123,0.0,3.0,85,0.00,,,0.00,,2013-04-30 08:02:00,
2013-04-30 04:11:00,54.0,50.0,29.91,ESE,123,0.0,3.0,85,0.00,,,0.00,,2013-04-30 08:11:00,
2013-04-30 04:21:00,54.0,50.0,29.91,SE,136,0.0,2.0,86,0.00,,,0.00,,2013-04-30 08:21:00,
2013-04-30 04:32:00,54.0,50.0,29.92,ESE,121,0.0,2.0,85,0.00,,,0.00,,2013-04-30 08:32:00,
2013-04-30 04:42:00,54.0,50.0,29.92,ESE,121,0.0,2.0,85,0.00,,,0.00,,2013-04-30 08:42:00,
2013-04-30 04:52:00,53.0,49.0,29.92,ESE,117,0.0,2.0,86,0.00,,,0.00,,2013-04-30 08:52:00,
2013-04-30 05:01:00,52.0,48.0,29.92,ESE,116,0.0,1.0,87,0.00,,,0.00,,2013-04-30 09:01:00,
2013-04-30 05:11:00,52.0,48.0,29.92,ESE,116,0.0,1.0,87,0.00,,,0.00,,2013-04-30 09:11:00,
2013-04-30 05:22:00,52.0,49.0,29.92,ESE,116,0.0,1.0,88,0.00,,,0.00,,2013-04-30 09:22:00,
2013-04-30 05:33:00,52.0,49.0,29.92,ESE,104,0.0,2.0,88,0.00,,,0.00,,2013-04-30 09:33:00,
2013-04-30 05:43:00,52.0,49.0,29.92,ESE,104,0.0,2.0,88,0.00,,,0.00,,2013-04-30 09:43:00,
2013-04-30 05:52:00,52.0,49.0,29.92,ESE,107,0.0,2.0,88,0.00,,,0.00,,2013-04-30 09:52:00,
2013-04-30 06:03:00,52.0,49.0,29.92,ESE,107,0.0,2.0,88,0.00,,,0.00,,2013-04-30 10:03:00,
2013-04-30 06:11:00,52.0,49.0,29.92,ESE,107,0.0,2.0,88,0.00,,,0.00,,2013-04-30 10:11:00,
2013-04-30 06:22:00,52.0,49.0,29.92,SW,215,0.0,2.0,88,0.00,,,0.00,,2013-04-30 10:22:00,
2013-04-30 06:32:00,52.0,49.0,29.93,SE,138,0.0,2.0,88,0.00,,,0.00,,2013-04-30 10:32:00,
2013-04-30 06:41:00,52.0,49.0,29.93,SE,138,0.0,2.0,88,0.00,,,0.00,,2013-04-30 10:41:00,
2013-04-30 06:52:00,51.0,48.0,29.93,SE,138,0.0,1.0,88,0.00,,,0.00,,2013-04-30 10:52:00,
2013-04-30 07:02:00,51.0,48.0,29.93,SE,138,0.0,0.0,88,0.00,,,0.00,,2013-04-30 11:02:00,
2013-04-30 07:11:00,51.0,48.0,29.93,SE,138,0.0,0.0,88,0.00,,,0.00,,2013-04-30 11:11:00,
2013-04-30 07:21:00,51.0,48.0,29.94,SE,139,0.0,0.0,89,0.00,,,0.00,,2013-04-30 11:21:00,
2013-04-30 07:31:00,51.0,48.0,29.95,SE,138,0.0,1.0,90,0.00,,,0.00,,2013-04-30 11:31:00,
2013-04-30 07:42:00,51.0,48.0,29.95,SE,138,0.0,1.0,90,0.00,,,0.00,,2013-04-30 11:42:00,
2013-04-30 07:51:00,52.0,49.0,29.95,SE,138,0.0,2.0,89,0.00,,,0.00,,2013-04-30 11:51:00,
2013-04-30 08:01:00,54.0,50.0,29.95,SE,134,0.0,2.0,86,0.00,,,0.00,,2013-04-30 12:01:00,
2013-04-30 08:11:00,54.0,50.0,29.95,SE,134,0.0,2.0,86,0.00,,,0.00,,2013-04-30 12:11:00,
2013-04-30 08:21:00,55.0,50.0,29.95,East,80,0.0,3.0,83,0.00,,,0.00,,2013-04-30 12:21:00,
2013-04-30 08:31:00,57.0,52.0,29.95,South,187,0.0,3.0,82,0.00,,,0.00,,2013-04-30 12:31:00,
2013-04-30 08:41:00,57.0,52.0,29.95,South,187,0.0,3.0,82,0.00,,,0.00,,2013-04-30 12:41:00,
2013-04-30 08:51:00,58.0,52.0,29.96,SW,219,0.0,4.0,80,0.00,,,0.00,,2013-04-30 12:51:00,
2013-04-30 09:01:00,60.0,53.0,29.96,SSE,147,0.0,4.0,78,0.00,,,0.00,,2013-04-30 13:01:00,
2013-04-30 09:11:00,60.0,53.0,29.96,SSE,147,0.0,4.0,78,0.00,,,0.00,,2013-04-30 13:11:00,
2013-04-30 09:21:00,61.0,53.0,29.96,WSW,241,1.0,7.0,76,0.00,,,0.00,,2013-04-30 13:21:00,
2013-04-30 09:31:00,62.0,54.0,29.96,ESE,104,1.0,5.0,74,0.00,,,0.00,,2013-04-30 13:31:00,
2013-04-30 09:41:00,62.0,54.0,29.96,ESE,104,1.0,5.0,74,0.00,,,0.00,,2013-04-30 13:41:00,
2013-04-30 09:52:00,63.0,54.0,29.97,West,275,1.0,7.0,73,0.00,,,0.00,,2013-04-30 13:52:00,
2013-04-30 10:02:00,65.0,55.0,29.97,West,261,2.0,5.0,70,0.00,,,0.00,,2013-04-30 14:02:00,
2013-04-30 10:11:00,65.0,55.0,29.97,West,261,2.0,5.0,70,0.00,,,0.00,,2013-04-30 14:11:00,
2013-04-30 10:21:00,65.0,55.0,29.97,SSE,166,1.0,6.0,70,0.00,,,0.00,,2013-04-30 14:21:00,
2013-04-30 10:31:00,66.0,55.0,29.96,ESE,104,1.0,4.0,67,0.00,,,0.00,,2013-04-30 14:31:00,
2013-04-30 10:41:00,66.0,55.0,29.96,ESE,104,1.0,4.0,67,0.00,,,0.00,,2013-04-30 14:41:00,
2013-04-30 10:52:00,68.0,57.0,29.96,SE,125,2.0,7.0,67,0.00,,,0.00,,2013-04-30 14:52:00,
2013-04-30 11:01:00,69.0,56.0,29.96,ENE,65,3.0,7.0,64,0.00,,,0.00,,2013-04-30 15:01:00,
2013-04-30 11:11:00,69.0,56.0,29.96,ENE,65,3.0,7.0,64,0.00,,,0.00,,2013-04-30 15:11:00,
2013-04-30 11:21:00,70.0,57.0,29.96,ESE,118,1.0,4.0,63,0.00,,,0.00,,2013-04-30 15:21:00,
2013-04-30 11:32:00,70.0,56.0,29.96,NE,53,2.0,5.0,62,0.00,,,0.00,,2013-04-30 15:32:00,
2013-04-30 11:42:00,70.0,56.0,29.96,NE,53,2.0,5.0,62,0.00,,,0.00,,2013-04-30 15:42:00,
2013-04-30 11:52:00,71.0,56.0,29.96,North,5,1.0,7.0,60,0.00,,,0.00,,2013-04-30 15:52:00,
2013-04-30 12:02:00,72.0,57.0,29.96,South,174,2.0,7.0,59,0.00,,,0.00,,2013-04-30 16:02:00,
2013-04-30 12:12:00,72.0,57.0,29.96,South,174,2.0,7.0,59,0.00,,,0.00,,2013-04-30 16:12:00,
2013-04-30 12:23:00,73.0,58.0,29.96,SW,234,2.0,7.0,60,0.00,,,0.00,,2013-04-30 16:23:00,
2013-04-30 12:33:00,73.0,57.0,29.95,East,85,3.0,7.0,58,0.00,,,0.00,,2013-04-30 16:33:00,
2013-04-30 12:42:00,73.0,57.0,29.95,East,85,3.0,7.0,58,0.00,,,0.00,,2013-04-30 16:42:00,
2013-04-30 12:52:00,74.0,58.0,29.95,ENE,72,3.0,9.0,58,0.00,,,0.00,,2013-04-30 16:52:00,
2013-04-30 13:02:00,74.0,59.0,29.95,SE,138,3.0,6.0,59,0.00,,,0.00,,2013-04-30 17:02:00,
2013-04-30 13:12:00,74.0,59.0,29.95,SE,138,3.0,6.0,59,0.00,,,0.00,,2013-04-30 17:12:00,
2013-04-30 13:22:00,75.0,59.0,29.95,East,88,2.0,6.0,57,0.00,,,0.00,,2013-04-30 17:22:00,
2013-04-30 13:32:00,76.0,60.0,29.95,East,82,3.0,7.0,58,0.00,,,0.00,,2013-04-30 17:32:00,
2013-04-30 13:42:00,76.0,60.0,29.95,East,82,3.0,7.0,58,0.00,,,0.00,,2013-04-30 17:42:00,
2013-04-30 13:52:00,76.0,60.0,29.94,SE,130,2.0,7.0,57,0.00,,,0.00,,2013-04-30 17:52:00,
2013-04-30 14:01:00,76.0,60.0,29.94,SE,130,2.0,7.0,57,0.00,,,0.00,,2013-04-30 18:01:00,
2013-04-30 14:11:00,76.0,60.0,29.94,SE,130,2.0,7.0,57,0.00,,,0.00,,2013-04-30 18:11:00,
2013-04-30 14:22:00,77.0,58.0,29.93,SE,142,5.0,10.0,52,0.00,,,0.00,,2013-04-30 18:22:00,
2013-04-30 14:32:00,77.0,61.0,29.93,SSW,200,1.0,8.0,58,0.00,,,0.00,,2013-04-30 18:32:00,
2013-04-30 14:42:00,77.0,61.0,29.93,SSW,200,1.0,8.0,58,0.00,,,0.00,,2013-04-30 18:42:00,
2013-04-30 14:52:00,78.0,59.0,29.93,West,275,3.0,7.0,53,0.00,,,0.00,,2013-04-30 18:52:00,
2013-04-30 15:01:00,79.0,60.0,29.92,East,89,3.0,9.0,52,0.00,,,0.00,,2013-04-30 19:01:00,
2013-04-30 15:11:00,79.0,60.0,29.92,East,89,3.0,9.0,52,0.00,,,0.00,,2013-04-30 19:11:00,
2013-04-30 15:22:00,79.0,61.0,29.92,East,98,1.0,5.0,55,0.00,,,0.00,,2013-04-30 19:22:00,
2013-04-30 15:32:00,79.0,59.0,29.92,East,101,1.0,8.0,51,0.00,,,0.00,,2013-04-30 19:32:00,
2013-04-30 15:42:00,79.0,59.0,29.92,East,101,1.0,8.0,51,0.00,,,0.00,,2013-04-30 19:42:00,
2013-04-30 15:52:00,80.0,62.0,29.91,NNW,327,3.0,8.0,54,0.00,,,0.00,,2013-04-30 19:52:00,
2013-04-30 16:02:00,80.0,61.0,29.91,SW,232,2.0,8.0,52,0.00,,,0.00,,2013-04-30 20:02:00,
2013-04-30 16:11:00,80.0,61.0,29.91,SW,232,2.0,8.0,52,0.00,,,0.00,,2013-04-30 20:11:00,
2013-04-30 16:21:00,80.0,61.0,29.91,NW,314,2.0,8.0,53,0.00,,,0.00,,2013-04-30 20:21:00,
2013-04-30 16:32:00,80.0,61.0,29.91,SE,134,2.0,5.0,53,0.00,,,0.00,,2013-04-30 20:32:00,
2013-04-30 16:42:00,80.0,61.0,29.91,SE,134,2.0,5.0,53,0.00,,,0.00,,2013-04-30 20:42:00,
2013-04-30 16:52:00,79.0,61.0,29.90,East,84,3.0,9.0,54,0.00,,,0.00,,2013-04-30 20:52:00,
2013-04-30 17:01:00,80.0,61.0,29.90,ENE,76,3.0,9.0,52,0.00,,,0.00,,2013-04-30 21:01:00,
2013-04-30 17:11:00,80.0,61.0,29.90,ENE,76,3.0,9.0,52,0.00,,,0.00,,2013-04-30 21:11:00,
2013-04-30 17:22:00,79.0,60.0,29.90,East,100,5.0,11.0,52,0.00,,,0.00,,2013-04-30 21:22:00,
2013-04-30 17:32:00,80.0,61.0,29.90,East,95,2.0,10.0,53,0.00,,,0.00,,2013-04-30 21:32:00,
2013-04-30 17:42:00,80.0,61.0,29.90,East,95,2.0,10.0,53,0.00,,,0.00,,2013-04-30 21:42:00,
2013-04-30 17:53:00,80.0,61.0,29.90,East,98,2.0,8.0,53,0.00,,,0.00,,2013-04-30 21:53:00,
2013-04-30 18:02:00,79.0,60.0,29.91,East,88,2.0,8.0,53,0.00,,,0.00,,2013-04-30 22:02:00,
2013-04-30 18:12:00,79.0,60.0,29.91,East,88,2.0,8.0,53,0.00,,,0.00,,2013-04-30 22:12:00,
2013-04-30 18:23:00,79.0,60.0,29.91,ENE,71,1.0,8.0,53,0.00,,,0.00,,2013-04-30 22:23:00,
2013-04-30 18:32:00,79.0,60.0,29.91,East,101,2.0,8.0,53,0.00,,,0.00,,2013-04-30 22:32:00,
2013-04-30 18:41:00,79.0,60.0,29.91,East,101,2.0,8.0,53,0.00,,,0.00,,2013-04-30 22:41:00,
2013-04-30 18:53:00,79.0,60.0,29.91,SE,130,2.0,9.0,53,0.00,,,0.00,,2013-04-30 22:53:00,
2013-04-30 19:02:00,79.0,61.0,29.92,ESE,115,2.0,7.0,54,0.00,,,0.00,,2013-04-30 23:02:00,
2013-04-30 19:12:00,79.0,61.0,29.92,ESE,115,2.0,7.0,54,0.00,,,0.00,,2013-04-30 23:12:00,
2013-04-30 19:22:00,78.0,59.0,29.93,South,170,1.0,5.0,53,0.00,,,0.00,,2013-04-30 23:22:00,
2013-04-30 19:32:00,78.0,60.0,29.93,East,84,4.0,9.0,54,0.00,,,0.00,,2013-04-30 23:32:00,
2013-04-30 19:42:00,78.0,60.0,29.93,East,84,4.0,9.0,54,0.00,,,0.00,,2013-04-30 23:42:00,
2013-04-30 19:52:00,77.0,60.0,29.93,ESE,109,2.0,6.0,55,0.00,,,0.00,,2013-04-30 23:52:00,
2013-04-30 20:02:00,76.0,59.0,29.93,SE,143,2.0,9.0,55,0.00,,,0.00,,2013-05-01 00:02:00,
2013-04-30 20:11:00,76.0,59.0,29.93,SE,143,2.0,9.0,55,0.00,,,0.00,,2013-05-01 00:11:00,
2013-04-30 20:21:00,75.0,59.0,29.94,ESE,123,1.0,7.0,57,0.00,,,0.00,,2013-05-01 00:21:00,
2013-04-30 20:32:00,75.0,58.0,29.94,East,94,1.0,5.0,56,0.00,,,0.00,,2013-05-01 00:32:00,
2013-04-30 20:42:00,75.0,58.0,29.94,East,94,1.0,5.0,56,0.00,,,0.00,,2013-05-01 00:42:00,
2013-04-30 20:52:00,74.0,58.0,29.94,SE,128,0.0,3.0,58,0.00,,,0.00,,2013-05-01 00:52:00,
2013-04-30 21:01:00,73.0,58.0,29.95,ESE,123,0.0,2.0,59,0.00,,,0.00,,2013-05-01 01:01:00,
2013-04-30 21:11:00,73.0,58.0,29.95,ESE,123,0.0,2.0,59,0.00,,,0.00,,2013-05-01 01:11:00,
2013-04-30 21:21:00,72.0,57.0,29.95,ESE,123,0.0,2.0,60,0.00,,,0.00,,2013-05-01 01:21:00,
2013-04-30 21:31:00,72.0,58.0,29.96,ESE,115,0.0,2.0,61,0.00,,,0.00,,2013-05-01 01:31:00,
2013-04-30 21:41:00,72.0,58.0,29.96,ESE,115,0.0,2.0,61,0.00,,,0.00,,2013-05-01 01:41:00,
2013-04-30 21:52:00,71.0,57.0,29.96,ESE,113,0.0,2.0,62,0.00,,,0.00,,2013-05-01 01:52:00,
2013-04-30 22:02:00,71.0,58.0,29.97,ESE,113,0.0,1.0,63,0.00,,,0.00,,2013-05-01 02:02:00,
2013-04-30 22:11:00,71.0,58.0,29.97,ESE,113,0.0,1.0,63,0.00,,,0.00,,2013-05-01 02:11:00,
2013-04-30 22:21:00,70.0,57.0,29.98,ESE,113,0.0,2.0,63,0.00,,,0.00,,2013-05-01 02:21:00,
2013-04-30 22:32:00,70.0,56.0,29.98,ESE,103,1.0,3.0,62,0.00,,,0.00,,2013-05-01 02:32:00,
2013-04-30 22:42:00,70.0,56.0,29.98,ESE,103,1.0,3.0,62,0.00,,,0.00,,2013-05-01 02:42:00,
2013-04-30 22:52:00,69.0,55.0,29.98,ESE,119,1.0,4.0,62,0.00,,,0.00,,2013-05-01 02:52:00,
2013-04-30 23:01:00,69.0,55.0,29.98,ESE,120,1.0,4.0,62,0.00,,,0.00,,2013-05-01 03:01:00,
2013-04-30 23:11:00,69.0,55.0,29.98,ESE,120,1.0,4.0,62,0.00,,,0.00,,2013-05-01 03:11:00,
2013-04-30 23:21:00,68.0,55.0,29.99,ESE,119,0.0,2.0,63,0.00,,,0.00,,2013-05-01 03:21:00,
2013-04-30 23:33:00,67.0,54.0,29.99,ESE,118,0.0,2.0,63,0.00,,,0.00,,2013-05-01 03:33:00,
2013-04-30 23:43:00,67.0,54.0,29.99,ESE,118,0.0,2.0,63,0.00,,,0.00,,2013-05-01 03:43:00,
2013-04-30 23:53:00,67.0,54.0,29.99,ESE,108,0.0,2.0,63,0.00,,,0.00,,2013-05-01 03:53:00,